EW3016 Weather Reports


Display with metric or nautical units.
time (UTC)temp
F
wind
direction
speed
MPH
gust
MPH
rain 1hr
in
rain 24hr
in
rain mn
in
humidity
%
barometer
mb
20260505193016 75 225 5.0 25.0 0.00 0.07 0.07 40 1005.6
20260505190016 74 225 4.0 18.0 0.00 0.07 0.07 45 1005.8
20260505183016 74 203 7.0 24.0 0.00 0.07 0.07 41 1006.4
20260505180036 75 225 6.0 24.0 0.00 0.07 0.07 41 1006.5
20260505173016 76 225 8.0 27.0 0.00 0.07 0.07 40 1006.9
20260505170017 75 203 7.0 31.0 0.00 0.07 0.07 42 1006.7
20260505163016 75 203 8.0 26.0 0.00 0.07 0.07 41 1007.2
20260505153036 74 180 6.0 22.0 0.00 0.07 0.07 47 1007.8
20260505123016 63 203 4.0 17.0 0.00 0.03 0.03 61 1008.8
20260505120016 62 158 5.0 15.0 0.00 0.03 0.03 61 1008.5
20260505113016 62 158 4.0 19.0 0.00 0.03 0.03 62 1008.7
20260505100016 58 158 5.0 19.0 0.00 0.03 0.03 64 1007.6
20260505093036 58 158 3.0 17.0 0.00 0.03 0.03 66 1007.5
20260505090036 57 135 5.0 21.0 0.03 0.03 0.03 68 1007.4
20260505083035 57 135 4.0 16.0 0.03 0.03 0.03 69 1007.4
20260505080038 60 158 5.0 17.0 0.00 0.00 0.00 57 1008.0
20260505073017 59 135 5.0 17.0 0.00 0.00 0.00 57 1007.8
20260505070017 59 135 5.0 23.0 0.00 0.00 0.00 56 1007.7
20260505063017 59 135 7.0 16.0 0.00 0.00 0.00 54 1007.7
20260505060015 59 135 5.0 19.0 0.00 0.00 0.00 54 1007.7
20260505053017 59 135 6.0 22.0 0.00 0.00 0.00 53 1008.0
20260505040017 60 135 11.0 28.0 0.00 0.00 0.00 51 1007.7
20260505033017 61 135 10.0 22.0 0.00 0.00 0.00 50 1007.7
20260505030017 62 135 7.0 35.0 0.00 0.00 0.00 47 1007.7
20260505023017 62 135 8.0 21.0 0.00 0.00 0.00 47 1007.7
20260505020017 63 135 7.0 19.0 0.00 0.00 0.00 45 1008.0
20260505013017 63 135 6.0 16.0 0.00 0.00 0.00 45 1007.8
20260505010016 63 135 6.0 15.0 0.00 0.00 0.00 44 1007.5
20260505003017 64 135 5.0 17.0 0.00 0.00 0.00 43 1007.3
20260505000017 65 158 4.0 18.0 0.00 0.00 0.00 41 1006.9
20260504233017 67 158 3.0 16.0 0.00 0.00 0.00 39 1006.8
20260504230038 69 225 2.0 12.0 0.00 0.00 0.00 35 1006.6
20260504223038 70 225 4.0 15.0 0.00 0.00 0.00 34 1006.6
20260504220016 70 225 4.0 15.0 0.00 0.00 0.00 32 1006.8
20260504213016 70 225 4.0 17.0 0.00 0.00 0.00 32 1006.8
20260504210018 71 225 4.0 17.0 0.00 0.00 0.00 34 1007.2
20260504203016 69 180 4.0 16.0 0.00 0.00 0.00 34 1007.3